Regional Weather Roundup
Issued by NWS Goodland, KS

Home | Current Version | Previous Version | Text Only | Print | Product List | Glossary On
Versions: 1 2 3 4 5 6 7 8 9 10 11 12 13 14 15 16 17 18 19 20 21 22 23 24 25 26 27 28 29 30 31 32 33 34 35 36 37 38 39 40 41 42 43 44 45 46 47 48 49 50
000
ASUS43 KGLD 011408
RWRGLD

GOODLAND FORECAST AREA HOURLY WEATHER ROUNDUP
NATIONAL WEATHER SERVICE GOODLAND KS
800 AM MDT SAT OCT 01 2016

...OFFICIAL OBSERVATIONS...

CITY           SKY/WX    TMP DP  RH WIND       PRES   REMARKS
GOODLAND KS    CLOUDY    54  46  74 S6        30.11F
HILL CITY KS   SUNNY     53  49  86 E3        30.13F
IMPERIAL NEB   SUNNY     51  45  79 SE8       30.11S
MCCOOK NEB     CLOUDY    50  46  86 CALM      30.13S
AKRON CO       SUNNY     54  46  74 W7        30.12S
BURLINGTON CO  SUNNY     48  43  82 CALM      30.13S
LIMON CO       CLOUDY    52  43  71 NW9       30.16S
$$

...UNOFFICIAL OBSERVATIONS...

CITY           SKY/WX    TMP DP  RH WIND       PRES   REMARKS
COLBY KS       SUNNY     52  48  87 CALM      30.13S
LENORA KS        N/A     53  32  45 MISG        N/A
NORTON KS      SUNNY     54  45  71 SE3       30.11F
SHARON SPRINGS   N/A     52  48  86 CALM        N/A
KIT CARSON CO    N/A     51  46  83 CALM        N/A
$$




USA.gov is the U.S. government's official web portal to all federal, state and local government web resources and services.